Flag for U.S.A. Weather past 2 weeks in Manassas, Virginia, U.S.A.

Now
84 °F

Passing clouds.


Feels Like: 90 °F
Forecast: 66 / 87 °F
Wind: 7 mph from Southwest

Location: Manassas Municipal

Current Time: Aug 21, 2014 at 6:03:49 PM

Latest Report: Aug 21, 2014 at 3:45 PM


Visibility: 10 mi

Pressure: 30.00 "Hg

Humidity: 66%

Dew point: 72 °F

Location of ManassasLocation

Historic Weather in Manassas — Graph

°F

Manassas temperature yesterday

Maximum temperature yesterday: 84 °F (at 1:45 PM)
Minimum temperature yesterday: 68 °F (at 10:35 PM)
Average temperature yesterday: 72 °F

Past Weeks' High & Low Weather Summary

 TemperatureHumidityPressure
High86 °F (Aug 21, 2:45 PM)100% (Aug 6, 10:35 PM)30.15 "Hg (Aug 6, 10:35 PM)
Low54 °F (Aug 15, 6:15 AM)32% (Aug 14, 5:55 PM)28.77 "Hg (Aug 12, 8:55 PM)
Average70 °F85%29.97 "Hg
* Reported Aug 6 3:50 PM — Aug 21 3:45 PM, Manassas, Weather by CustomWeather, © 2014

Note: Actual official high and low records may vary slightly from our data, if they occured in-between our weather recording intervals... More about our weather records

Advertising

Manassas weather history for previous 24 hours

 ConditionsComfort  
Time TempWeatherWind HumidityBarometerVisibility
3:45 PM
Aug 21
84 °FPassing clouds.7 mph66%30.00 "Hg10 mi
2:45 PM86 °FScattered clouds.5 mph59%30.02 "Hg10 mi
1:45 PM84 °FPassing clouds.No wind66%30.03 "Hg10 mi
12:45 PM81 °FSunny.No wind79%30.05 "Hg10 mi
11:45 AM77 °FSunny.6 mph94%30.06 "Hg10 mi
10:55 AM73 °FLow clouds.No wind94%30.07 "Hg10 mi
9:50 AM70 °FFog.No wind100%30.07 "Hg4 mi
7:50 AM66 °FFog.No wind100%30.05 "Hg1 mi
6:15 AM66 °FLow clouds.No wind100%30.03 "Hg0 mi
5:55 AM66 °FLow clouds.No wind100%30.02 "Hg0 mi
5:35 AM66 °FLow clouds.No wind100%30.02 "Hg0 mi
5:15 AM66 °FLow clouds.No wind100%30.01 "Hg1 mi
4:55 AM66 °FLow clouds.No wind94%30.01 "Hg5 mi
4:35 AM64 °FPassing clouds.No wind100%30.00 "Hg9 mi
4:15 AM64 °FPassing clouds.No wind100%30.00 "Hg7 mi
3:55 AM64 °FClear.No wind100%30.01 "Hg5 mi
3:35 AM66 °FClear.No wind94%30.00 "Hg9 mi
3:15 AM66 °FClear.No wind94%30.00 "Hg10 mi
2:55 AM66 °FClear.No wind100%30.00 "Hg9 mi
2:35 AM66 °FClear.No wind100%30.00 "Hg8 mi
1:55 AM66 °FClear.No wind100%30.01 "Hg9 mi
1:35 AM66 °FClear.No wind100%30.00 "Hg9 mi
1:15 AM66 °FClear.No wind100%30.01 "Hg10 mi
12:55 AM66 °FClear.No wind100%30.01 "Hg10 mi
12:35 AM66 °FClear.No wind100%30.02 "Hg10 mi
12:15 AM68 °FClear.No wind100%30.02 "Hg10 mi
11:55 PM
Aug 20
68 °FPassing clouds.3 mph100%30.02 "Hg10 mi
11:35 PM68 °FPassing clouds.No wind100%30.03 "Hg10 mi
11:15 PM68 °FPassing clouds.No wind100%30.02 "Hg10 mi
10:55 PM68 °FPassing clouds.No wind94%30.01 "Hg8 mi
10:35 PM68 °FPassing clouds.No wind94%30.02 "Hg10 mi
10:15 PM70 °FPassing clouds.3 mph100%30.02 "Hg10 mi
9:55 PM70 °FPassing clouds.No wind94%30.01 "Hg10 mi
9:35 PM70 °FClear.No wind94%30.00 "Hg10 mi
9:15 PM70 °FClear.3 mph100%29.99 "Hg10 mi
8:55 PM70 °FSunny.No wind94%29.98 "Hg10 mi
8:35 PM70 °FSunny.No wind100%29.98 "Hg10 mi
7:55 PM72 °FSunny.3 mph94%29.97 "Hg10 mi
7:35 PM72 °FSunny.3 mph94%29.97 "Hg10 mi
7:15 PM70 °FSunny.No wind100%29.97 "Hg10 mi
6:55 PM70 °FSunny.5 mph94%29.97 "Hg10 mi
6:35 PM70 °FSunny.9 mph100%29.97 "Hg10 mi
6:15 PM70 °FPassing clouds.9 mph100%29.98 "Hg10 mi
Weather by CustomWeather, © 2014

See weather overviewHow to use our weather pages